Weather History for Jerez de la Frontera, Spain

Change the Weather History Date:

Sunday, October 30, 2011

  Actual Average Record
Temperature  
Mean Temperature 66 °F -  
Max Temperature 80 °F 65 °F 82 °F (2001)
Min Temperature 53 °F 47 °F 35 °F (2008)
Cooling Degree Days 2    
Growing Degree Days 16 (Base 50)    
Moisture  
Dew Point 57 °F    
Average Humidity 71    
Maximum Humidity 100    
Minimum Humidity 46    
Precipitation  
Precipitation 0.00 in 0.14 in - ()
Sea Level Pressure  
Sea Level Pressure 30.09 in    
Wind  
Wind Speed 1 mph ()    
Max Wind Speed 6 mph    
Max Gust Speed -    
Visibility 7.9 miles    
Events      
Averages and records for this station are not official NWS values.
T = Trace of Precipitation, MM = Missing Value Source: Averaged Metar Reports

Daily Weather History Graph

Daily Weather History Graph

Search for Another Location

Airport:

Trip Planner

Search our weather history database for the weather conditions in past years. The results will help you decide how hot, cold, wet, or windy it might be!

Date:

Astronomy

Oct. 30, 2011 Rise Set
Actual Time 7:45 AM CET 6:29 PM CET
Civil Twilight 7:18 AM CET 6:56 PM CET
Nautical Twilight 6:48 AM CET 7:26 PM CET
Astronomical Twilight 6:18 AM CET 7:57 PM CET
Moon 11:47 AM CET (10/30) 9:47 PM CET (10/30)
Length of Visible Light 11h 37m
Length of Day
10h 44m
Waxing Crescent, 18% of the Moon is Illuminated
Oct 30
Waxing Crescent
Nov 2
First Quarter
Nov 10
Full
Nov 18
Last Quarter
Nov 25
New

Hourly Weather History & Observations

Time (CET) Temp. Dew Point Humidity Pressure Visibility Wind Dir Wind Speed Gust Speed Precip Events Conditions
2:00 AM 59 °F 56 °F 86% 30.12 in - Calm Calm - -  
5:00 AM 55.4 °F 55.4 °F 100% 30.06 in - Calm Calm - N/A   Clear
5:30 AM 53.6 °F 53.6 °F 100% 30.06 in - Calm Calm - N/A   Clear
6:00 AM 55.4 °F 53.6 °F 94% 30.09 in - Calm Calm - N/A   Clear
6:30 AM 55.4 °F 53.6 °F 94% 30.09 in - Calm Calm - N/A   Clear
7:00 AM 56 °F 55 °F 95% 30.11 in 19 mi Calm Calm - -  
7:00 AM 55.4 °F 53.6 °F 94% 30.09 in - Calm Calm - N/A   Clear
7:30 AM 53.6 °F 53.6 °F 100% 30.09 in - Calm Calm - N/A   Clear
8:00 AM 53.6 °F 53.6 °F 100% 30.09 in - Calm Calm - N/A   Clear
8:30 AM 55.4 °F 55.4 °F 100% 30.09 in - Variable 1.2 mph - N/A   Clear
9:00 AM 55.4 °F 55.4 °F 100% 30.12 in - Calm Calm - N/A   Clear
9:30 AM 59.0 °F 57.2 °F 94% 30.12 in - Calm Calm - N/A   Clear
10:00 AM 62.6 °F 59.0 °F 88% 30.12 in - Variable 1.2 mph - N/A   Clear
10:30 AM 66.2 °F 57.2 °F 73% 30.12 in - Variable 1.2 mph - N/A   Clear
11:00 AM 68.0 °F 57.2 °F 68% 30.12 in - Calm Calm - N/A   Clear
11:30 AM 69.8 °F 59.0 °F 68% 30.12 in - Calm Calm - N/A   Clear
12:00 PM 73.4 °F 59.0 °F 61% 30.12 in - Variable 2.3 mph - N/A   Clear
12:30 PM 75.2 °F 59.0 °F 57% 30.12 in - Variable 1.2 mph - N/A   Clear
1:00 PM 77 °F 60 °F 46% 30.12 in 31 mi North 2.3 mph - -   Clear
1:00 PM 75.2 °F 57.2 °F 53% 30.09 in - Variable 1.2 mph - N/A   Clear
1:30 PM 77.0 °F 57.2 °F 50% 30.09 in - Variable 2.3 mph - N/A   Clear
2:00 PM 77.0 °F 57.2 °F 50% 30.09 in - NNE 4.6 mph - N/A   Clear
2:30 PM 77.0 °F 59.0 °F 54% 30.09 in - North 3.5 mph - N/A   Clear
3:00 PM 77.0 °F 55.4 °F 47% 30.06 in - NNE 5.8 mph - N/A   Clear
3:30 PM 78.8 °F 57.2 °F 47% 30.06 in 6.2 mi NNE 4.6 mph - N/A   Partly Cloudy
4:00 PM 78.8 °F 57.2 °F 47% 30.06 in 6.2 mi Variable 2.3 mph - N/A   Partly Cloudy
4:30 PM 78.8 °F 57.2 °F 47% 30.06 in 6.2 mi Variable 2.3 mph - N/A   Partly Cloudy
5:00 PM 78.8 °F 57.2 °F 47% 30.06 in 6.2 mi Variable 1.2 mph - N/A   Partly Cloudy
5:30 PM 77.0 °F 55.4 °F 47% 30.06 in 6.2 mi Variable 2.3 mph - N/A   Partly Cloudy
6:00 PM 75.2 °F 57.2 °F 53% 30.06 in 6.2 mi South 5.8 mph - N/A   Partly Cloudy
6:30 PM 73.4 °F 57.2 °F 57% 30.06 in 6.2 mi South 5.8 mph - N/A   Partly Cloudy
7:00 PM 72 °F 58 °F 53% 30.09 in 16 mi South 5.8 mph - -   Scattered Clouds
7:00 PM 71.6 °F 57.2 °F 60% 30.09 in 6.2 mi South 5.8 mph - N/A   Partly Cloudy
7:30 PM 69.8 °F 57.2 °F 64% 30.09 in 6.2 mi SSE 5.8 mph - N/A   Partly Cloudy
8:00 PM 69.8 °F 57.2 °F 64% 30.09 in 6.2 mi Variable 2.3 mph - N/A   Partly Cloudy
8:30 PM 66.2 °F 57.2 °F 73% 30.09 in 6.2 mi NNE 3.5 mph - N/A   Partly Cloudy
9:00 PM 66.2 °F 57.2 °F 73% 30.09 in - Variable 2.3 mph - N/A   Clear
9:30 PM 64.4 °F 57.2 °F 77% 30.09 in - Variable 2.3 mph - N/A   Clear
10:00 PM 64.4 °F 57.2 °F 77% 30.09 in - Variable 2.3 mph - N/A   Clear
10:30 PM 62.6 °F 57.2 °F 82% 30.09 in - Calm Calm - N/A   Clear